Weather History for Gonzales, LA

Change the Weather History Date:

Wednesday, April 10, 2013

  Actual Average (KBTR) Record (KBTR)
Temperature  
Mean Temperature 78 °F 67 °F  
Max Temperature 82 °F 78 °F 90 °F (1946)
Min Temperature 73 °F 55 °F 33 °F (1938)
Degree Days  
Heating Degree Days 0 2  
Month to date heating degree days 28  
Since 1 July heating degree days 1530  
Cooling Degree Days 12 4  
Month to date cooling degree days 34  
Year to date cooling degree days 123  
Growing Degree Days 28 (Base 50)    
Moisture  
Dew Point 70 °F    
Average Humidity 80    
Maximum Humidity 89    
Minimum Humidity 66    
Precipitation  
Precipitation 0.00 in 0.15 in 2.72 in (1955)
Month to date precipitation 1.55  
Year to date precipitation 16.72  
Snow  
Snow 0.00 in - - ()
Month to date snowfall  
Since 1 July snowfall  
Snow Depth -    
Sea Level Pressure  
Sea Level Pressure 29.88 in    
Wind  
Wind Speed 10 mph (SE)    
Max Wind Speed 17 mph    
Max Gust Speed 26 mph    
Visibility 10 miles    
Events Rain    
T = Trace of Precipitation, MM = Missing Value Source: NWS Daily Summary

Daily Weather History Graph

Daily Weather History Graph

Search for Another Location

Airport:

Trip Planner

Search our weather history database for the weather conditions in past years. The results will help you decide how hot, cold, wet, or windy it might be!

Date:

Astronomy

Apr. 10, 2013 Rise Set
Actual Time 6:42 AM CDT 7:28 PM CDT
Civil Twilight 6:17 AM CDT 7:52 PM CDT
Nautical Twilight 5:49 AM CDT 8:21 PM CDT
Astronomical Twilight 5:19 AM CDT 8:50 PM CDT
Moon 6:40 AM CDT (4/10) 7:59 PM CDT (4/10)
Length of Visible Light 13h 34m
Length of Day
12h 46m
New Moon, 0% of the Moon is Illuminated
Apr 10
New Moon
Apr 18
First Quarter
Apr 25
Full
May 2
Last Quarter
May 9
New

Hourly Weather History & Observations

Time (CDT) Temp. Heat Index Dew Point Humidity Pressure Visibility Wind Dir Wind Speed Gust Speed Precip Events Conditions
12:15 AM 74.8 °F - 70.2 °F 85% 29.95 in 10.0 mi SE 8.1 mph - N/A   Overcast
12:35 AM 74.7 °F - 70.0 °F 85% 29.94 in 10.0 mi SE 8.1 mph - N/A   Overcast
12:55 AM 74.8 °F - 70.0 °F 85% 29.93 in 10.0 mi ESE 10.4 mph 16.1 mph N/A   Overcast
1:15 AM 74.7 °F - 70.0 °F 85% 29.93 in 10.0 mi ESE 9.2 mph - N/A   Overcast
1:35 AM 74.8 °F - 70.0 °F 85% 29.92 in 10.0 mi SE 8.1 mph - N/A   Overcast
1:55 AM 75.2 °F - 70.0 °F 84% 29.92 in 10.0 mi SE 10.4 mph 20.7 mph N/A   Overcast
2:15 AM 75.2 °F - 70.0 °F 84% 29.91 in 10.0 mi SE 6.9 mph - N/A   Overcast
2:35 AM 74.8 °F - 69.8 °F 84% 29.90 in 10.0 mi SE 12.7 mph 19.6 mph N/A   Overcast
2:55 AM 75.2 °F - 69.8 °F 83% 29.90 in 10.0 mi SE 9.2 mph 24.2 mph N/A   Overcast
3:15 AM 74.7 °F - 69.8 °F 85% 29.90 in 10.0 mi SE 10.4 mph - N/A   Overcast
3:35 AM 74.3 °F - 69.8 °F 86% 29.90 in 10.0 mi SSE 10.4 mph - N/A   Overcast
3:55 AM 74.3 °F - 69.4 °F 85% 29.90 in 10.0 mi SSE 10.4 mph - N/A   Overcast
4:15 AM 74.3 °F - 69.6 °F 85% 29.88 in 10.0 mi SE 11.5 mph - N/A   Overcast
4:35 AM 74.3 °F - 69.8 °F 86% 29.87 in 10.0 mi SE 8.1 mph - N/A   Overcast
4:55 AM 73.9 °F - 69.3 °F 85% 29.86 in 10.0 mi SE 11.5 mph 18.4 mph N/A   Overcast
5:15 AM 73.9 °F - 69.4 °F 86% 29.86 in 10.0 mi ESE 9.2 mph - N/A   Overcast
5:35 AM 73.6 °F - 69.3 °F 86% 29.86 in 10.0 mi SSE 9.2 mph 16.1 mph N/A   Overcast
5:55 AM 73.6 °F - 69.3 °F 86% 29.86 in 10.0 mi SE 10.4 mph 16.1 mph N/A   Overcast
6:15 AM 73.8 °F - 69.1 °F 85% 29.87 in 10.0 mi SE 11.5 mph 19.6 mph N/A   Overcast
6:35 AM 73.2 °F - 68.9 °F 86% 29.88 in 10.0 mi SE 9.2 mph - N/A   Overcast
6:55 AM 73.8 °F - 69.1 °F 85% 29.86 in 10.0 mi SE 9.2 mph 18.4 mph N/A   Overcast
7:15 AM 73.6 °F - 69.1 °F 86% 29.87 in 10.0 mi SE 10.4 mph 20.7 mph N/A   Overcast
7:35 AM 73.6 °F - 68.9 °F 85% 29.87 in 10.0 mi SE 13.8 mph 20.7 mph N/A   Overcast
7:55 AM 73.8 °F - 68.9 °F 85% 29.88 in 10.0 mi SE 13.8 mph 21.9 mph N/A   Overcast
8:15 AM 74.1 °F - 68.9 °F 84% 29.88 in 10.0 mi SE 11.5 mph 19.6 mph N/A   Overcast
8:35 AM 74.5 °F - 68.9 °F 83% 29.89 in 10.0 mi SE 12.7 mph 21.9 mph N/A   Overcast
8:55 AM 75.0 °F - 69.1 °F 82% 29.90 in 10.0 mi SSE 11.5 mph - N/A   Overcast
9:15 AM 75.4 °F - 69.3 °F 81% 29.91 in 10.0 mi SSE 12.7 mph - N/A   Overcast
9:35 AM 76.3 °F - 69.8 °F 80% 29.91 in 10.0 mi SSE 10.4 mph 18.4 mph N/A   Overcast
9:55 AM 76.1 °F - 69.8 °F 81% 29.92 in 10.0 mi SSE 10.4 mph 19.6 mph N/A   Overcast
10:15 AM 77.2 °F - 70.2 °F 79% 29.94 in 10.0 mi SSE 10.4 mph 16.1 mph N/A   Overcast
10:35 AM 76.8 °F - 70.0 °F 79% 29.94 in 10.0 mi SSE 12.7 mph 16.1 mph N/A   Overcast
10:55 AM 77.4 °F - 70.0 °F 78% 29.94 in 10.0 mi SE 12.7 mph 18.4 mph N/A   Overcast
11:15 AM 79.3 °F - 70.9 °F 75% 29.93 in 10.0 mi SE 10.4 mph 16.1 mph N/A   Overcast
11:35 AM 78.1 °F - 70.0 °F 76% 29.93 in 10.0 mi SSE 11.5 mph 18.4 mph N/A   Overcast
12:15 PM 80.6 °F 84.4 °F 71.1 °F 73% 29.92 in 10.0 mi SE 12.7 mph 20.7 mph N/A   Mostly Cloudy
12:35 PM 81.1 °F 84.9 °F 70.5 °F 70% 29.91 in 10.0 mi SSE 17.3 mph 26.5 mph N/A   Scattered Clouds
12:55 PM 80.1 °F 83.2 °F 70.0 °F 71% 29.91 in 10.0 mi SSE 12.7 mph 20.7 mph N/A   Mostly Cloudy
1:15 PM 80.4 °F 83.8 °F 70.2 °F 71% 29.91 in 10.0 mi SSE 11.5 mph 17.3 mph N/A   Overcast
1:35 PM 80.6 °F 83.9 °F 70.2 °F 70% 29.90 in 10.0 mi SSE 12.7 mph 18.4 mph N/A   Mostly Cloudy
1:55 PM 81.1 °F 84.9 °F 70.5 °F 70% 29.90 in 10.0 mi SSE 15.0 mph 20.7 mph N/A   Overcast
2:15 PM 81.7 °F 85.6 °F 70.7 °F 69% 29.89 in 10.0 mi SSE 12.7 mph 20.7 mph N/A   Overcast
2:35 PM 81.1 °F 84.9 °F 70.7 °F 70% 29.88 in 10.0 mi SSE 11.5 mph 18.4 mph N/A   Overcast
2:55 PM 80.6 °F 83.9 °F 70.2 °F 70% 29.87 in 10.0 mi SSE 12.7 mph 19.6 mph N/A   Overcast
3:15 PM 80.8 °F 84.2 °F 70.3 °F 70% 29.87 in 10.0 mi SSE 11.5 mph 19.6 mph N/A   Overcast
3:35 PM 81.9 °F 85.8 °F 70.5 °F 68% 29.86 in 10.0 mi SSE 13.8 mph 20.7 mph N/A   Scattered Clouds
3:55 PM 82.4 °F 86.7 °F 70.7 °F 68% 29.85 in 10.0 mi SSE 17.3 mph 23.0 mph N/A   Mostly Cloudy
4:15 PM 82.6 °F 86.6 °F 70.3 °F 66% 29.84 in 10.0 mi SSE 16.1 mph 23.0 mph N/A   Scattered Clouds
4:35 PM 81.3 °F 84.8 °F 70.0 °F 68% 29.84 in 10.0 mi South 17.3 mph 21.9 mph N/A   Scattered Clouds
4:55 PM 80.8 °F 83.9 °F 69.4 °F 68% 29.84 in 10.0 mi SSE 12.7 mph 18.4 mph N/A   Scattered Clouds
5:15 PM 80.8 °F 83.9 °F 69.4 °F 68% 29.84 in 10.0 mi SSE 13.8 mph 20.7 mph N/A   Mostly Cloudy
5:35 PM 81.0 °F 84.4 °F 69.8 °F 69% 29.84 in 10.0 mi SSE 11.5 mph 19.6 mph N/A   Scattered Clouds
5:55 PM 79.3 °F - 70.2 °F 73% 29.84 in 10.0 mi SSE 10.4 mph - N/A   Mostly Cloudy
6:15 PM 78.4 °F - 69.8 °F 75% 29.84 in 10.0 mi SSE 11.5 mph 18.4 mph N/A   Overcast
6:35 PM 77.9 °F - 70.0 °F 76% 29.84 in 10.0 mi South 10.4 mph - N/A   Overcast
6:55 PM 77.9 °F - 70.0 °F 76% 29.84 in 10.0 mi SSE 10.4 mph 19.6 mph N/A   Overcast
7:15 PM 77.0 °F - 70.0 °F 79% 29.84 in 10.0 mi SSE 10.4 mph - N/A   Overcast
7:35 PM 76.8 °F - 70.0 °F 79% 29.84 in 10.0 mi SSE 8.1 mph - N/A   Overcast
7:55 PM 76.3 °F - 70.3 °F 82% 29.84 in 10.0 mi SSE 9.2 mph - N/A   Overcast
8:15 PM 76.1 °F - 70.7 °F 83% 29.84 in 10.0 mi SSE 11.5 mph 17.3 mph N/A   Light Drizzle
8:35 PM 74.7 °F - 71.1 °F 88% 29.84 in 7.0 mi SSE 8.1 mph - N/A Rain Light Rain
8:55 PM 74.8 °F - 71.1 °F 88% 29.83 in 10.0 mi SSE 9.2 mph - N/A   Overcast
9:15 PM 74.7 °F - 71.2 °F 89% 29.83 in 10.0 mi SSE 4.6 mph - N/A   Overcast
9:35 PM 74.8 °F - 70.9 °F 87% 29.83 in 10.0 mi SSE 8.1 mph - N/A   Overcast
9:55 PM 75.2 °F - 71.1 °F 87% 29.83 in 7.0 mi SE 10.4 mph - N/A   Overcast
10:15 PM 75.2 °F - 71.1 °F 87% 29.83 in 10.0 mi SE 9.2 mph 17.3 mph N/A   Overcast
10:35 PM 75.2 °F - 70.9 °F 86% 29.82 in 10.0 mi SE 9.2 mph - N/A   Mostly Cloudy
10:55 PM 75.2 °F - 70.9 °F 86% 29.82 in 10.0 mi SSE 10.4 mph 17.3 mph N/A   Mostly Cloudy
11:15 PM 74.7 °F - 70.7 °F 87% 29.81 in 10.0 mi SE 9.2 mph 16.1 mph N/A   Mostly Cloudy
11:35 PM 74.7 °F - 70.7 °F 87% 29.80 in 10.0 mi SSE 10.4 mph - N/A   Overcast
11:55 PM 74.8 °F - 70.7 °F 87% 29.80 in 10.0 mi SSE 8.1 mph - N/A   Overcast